TimePDT,TemperatureF,Dew PointF,Humidity,Sea Level PressureIn,VisibilityMPH,Wind Direction,Wind SpeedMPH,Gust SpeedMPH,PrecipitationIn,Events,Conditions,WindDirDegrees,DateUTC
12:32 AM,51.8,50.0,94,29.81,10.0,SSE,8.1,-,N/A,,Overcast,160,2013-05-28 07:32:00
12:53 AM,52.0,50.0,93,29.82,9.0,South,8.1,-,N/A,,Overcast,180,2013-05-28 07:53:00
1:08 AM,51.8,50.0,94,29.81,7.0,South,4.6,-,N/A,,Overcast,180,2013-05-28 08:08:00
1:53 AM,52.0,48.9,89,29.82,10.0,SSE,9.2,-,0.01,,Overcast,150,2013-05-28 08:53:00
2:09 AM,51.8,48.2,88,29.81,10.0,SSE,8.1,-,N/A,,Overcast,150,2013-05-28 09:09:00
2:26 AM,51.8,48.2,88,29.82,10.0,SE,6.9,-,N/A,,Overcast,130,2013-05-28 09:26:00
2:53 AM,52.0,48.9,89,29.83,10.0,SSE,8.1,-,N/A,,Overcast,150,2013-05-28 09:53:00
3:18 AM,51.8,48.2,88,29.83,10.0,SE,6.9,-,N/A,,Overcast,140,2013-05-28 10:18:00
3:35 AM,51.8,48.2,88,29.83,10.0,SE,8.1,-,0.00,,Overcast,130,2013-05-28 10:35:00
3:53 AM,52.0,50.0,93,29.84,8.0,SE,5.8,-,0.00,,Overcast,130,2013-05-28 10:53:00
4:07 AM,51.8,50.0,94,29.83,10.0,SE,6.9,-,N/A,,Overcast,140,2013-05-28 11:07:00
4:20 AM,51.8,48.2,88,29.83,10.0,SSE,8.1,-,N/A,,Overcast,150,2013-05-28 11:20:00
4:53 AM,52.0,48.9,89,29.84,10.0,SE,6.9,-,N/A,,Overcast,140,2013-05-28 11:53:00
5:53 AM,52.0,50.0,93,29.85,10.0,SE,8.1,-,0.01,,Overcast,130,2013-05-28 12:53:00
6:53 AM,52.0,48.9,89,29.86,10.0,SE,9.2,-,N/A,,Overcast,140,2013-05-28 13:53:00
7:33 AM,53.6,50.0,88,29.85,10.0,SE,6.9,-,N/A,,Overcast,140,2013-05-28 14:33:00
7:53 AM,53.1,50.0,89,29.86,10.0,SE,8.1,-,N/A,,Overcast,140,2013-05-28 14:53:00
8:21 AM,53.6,50.0,88,29.85,10.0,SE,6.9,-,N/A,,Overcast,140,2013-05-28 15:21:00
8:51 AM,53.6,50.0,88,29.85,10.0,South,10.4,-,0.01,,Overcast,180,2013-05-28 15:51:00
8:53 AM,54.0,50.0,86,29.87,10.0,SSW,10.4,-,0.01,,Overcast,200,2013-05-28 15:53:00
9:32 AM,51.8,51.8,100,29.87,2.0,SSW,12.7,-,0.00,Rain,Light Rain,200,2013-05-28 16:32:00
9:39 AM,51.8,51.8,100,29.87,1.8,South,11.5,-,0.00,Rain,Light Rain,180,2013-05-28 16:39:00
9:46 AM,51.8,51.8,100,29.87,3.0,South,9.2,-,0.00,Rain,Light Rain,190,2013-05-28 16:46:00
9:53 AM,53.1,51.1,93,29.88,10.0,South,10.4,-,0.00,,Overcast,190,2013-05-28 16:53:00
10:53 AM,53.1,51.1,93,29.89,10.0,SSW,16.1,-,0.00,Rain,Light Rain,210,2013-05-28 17:53:00
11:15 AM,53.6,51.8,94,29.89,2.5,SSW,12.7,-,0.00,Rain,Light Rain,210,2013-05-28 18:15:00
11:23 AM,53.6,51.8,94,29.89,3.0,SSW,15.0,-,0.00,Rain,Light Rain,210,2013-05-28 18:23:00
11:43 AM,53.6,51.8,94,29.90,7.0,SSW,13.8,-,0.00,,Overcast,210,2013-05-28 18:43:00
11:53 AM,54.0,51.1,90,29.91,10.0,South,13.8,-,0.00,,Overcast,180,2013-05-28 18:53:00
12:26 PM,53.6,50.0,88,29.91,7.0,SSW,17.3,21.9,0.00,Rain,Light Rain,200,2013-05-28 19:26:00
12:39 PM,53.6,51.8,94,29.90,10.0,South,11.5,-,0.00,,Overcast,190,2013-05-28 19:39:00
12:53 PM,55.9,52.0,87,29.91,10.0,South,11.5,-,0.00,,Overcast,190,2013-05-28 19:53:00
1:21 PM,55.4,48.2,77,29.90,10.0,SSW,13.8,-,0.01,,Overcast,210,2013-05-28 20:21:00
1:53 PM,55.0,48.0,77,29.92,10.0,South,17.3,-,0.01,,Overcast,170,2013-05-28 20:53:00
2:02 PM,55.4,48.2,77,29.91,10.0,South,11.5,-,N/A,,Overcast,170,2013-05-28 21:02:00
2:41 PM,55.4,48.2,77,29.91,10.0,South,17.3,-,0.00,Rain,Light Rain,190,2013-05-28 21:41:00
2:50 PM,55.4,48.2,77,29.91,10.0,South,18.4,-,0.00,,Overcast,190,2013-05-28 21:50:00
2:53 PM,55.9,48.0,75,29.93,10.0,SSW,16.1,-,0.00,,Overcast,200,2013-05-28 21:53:00
3:36 PM,55.4,48.2,77,29.92,10.0,South,11.5,-,N/A,,Overcast,180,2013-05-28 22:36:00
3:53 PM,55.0,48.9,80,29.93,10.0,SW,17.3,21.9,N/A,,Overcast,220,2013-05-28 22:53:00
4:21 PM,51.8,50.0,94,29.92,2.0,SSW,11.5,-,0.00,Rain,Light Rain,210,2013-05-28 23:21:00
4:32 PM,53.6,51.8,94,29.92,2.5,SW,12.7,-,0.00,Rain,Light Rain,220,2013-05-28 23:32:00
4:41 PM,51.8,51.8,100,29.92,3.0,SSW,12.7,-,0.00,Rain,Light Rain,210,2013-05-28 23:41:00
4:53 PM,53.1,52.0,96,29.93,8.0,SSW,10.4,-,0.00,,Overcast,200,2013-05-28 23:53:00
5:01 PM,53.6,51.8,94,29.91,10.0,South,8.1,-,N/A,,Overcast,190,2013-05-29 00:01:00
5:10 PM,53.6,50.0,88,29.91,9.0,SSW,15.0,19.6,N/A,,Overcast,210,2013-05-29 00:10:00
5:24 PM,53.6,48.2,82,29.90,7.0,SSW,12.7,-,N/A,,Overcast,210,2013-05-29 00:24:00
5:42 PM,53.6,50.0,88,29.90,5.0,SSW,16.1,20.7,N/A,,Overcast,210,2013-05-29 00:42:00
5:51 PM,53.6,50.0,88,29.90,8.0,SSW,11.5,-,0.00,Rain,Light Rain,200,2013-05-29 00:51:00
5:53 PM,53.1,50.0,89,29.91,10.0,South,10.4,-,0.00,,Overcast,190,2013-05-29 00:53:00
6:24 PM,53.6,48.2,82,29.88,10.0,South,6.9,-,0.01,,Overcast,180,2013-05-29 01:24:00
6:53 PM,53.1,48.0,83,29.88,10.0,SSE,9.2,-,0.01,,Overcast,150,2013-05-29 01:53:00
7:53 PM,52.0,48.0,86,29.86,10.0,SSE,6.9,-,N/A,,Mostly Cloudy,150,2013-05-29 02:53:00
8:53 PM,52.0,48.0,86,29.84,10.0,ESE,5.8,-,N/A,,Overcast,110,2013-05-29 03:53:00
9:53 PM,50.0,46.9,89,29.81,10.0,East,5.8,-,N/A,,Mostly Cloudy,80,2013-05-29 04:53:00
10:53 PM,51.1,48.0,89,29.80,10.0,ENE,5.8,-,N/A,,Overcast,60,2013-05-29 05:53:00
11:53 PM,50.0,48.0,93,29.78,7.0,ENE,3.5,-,0.00,Rain,Light Rain,60,2013-05-29 06:53:00